Location: Columbia
(38.9520°N, 92.3340°W)
Time: 05:50:48
(UTC-05:00)

Daily predictions for brighter satellites

Satellite Brightness Start Highest point End
(mag) Time Altitude Azimuth Time Altitude Azimuth Time Altitude Azimuth
CENTAUR R/B 4.4 02:23:16 25° NNE 02:23:16 25° NNE 02:26:02 10° NNE
SL-16 R/B 4.1 02:52:39 30° NNE 02:52:39 30° NNE 02:56:18 10° N
Resurs 1-4 Rocket 4.2 03:08:15 10° NNE 03:10:19 23° NE 03:10:19 23° NE
CZ-2D R/B 3.8 03:24:12 10° NNE 03:27:04 31° NNE 03:27:04 31° NNE
ARIANE 5 R/B 4.3 03:31:59 10° NNE 03:34:22 28° NNE 03:34:22 28° NNE
Cosmos 2322 Rocket 4.2 03:42:03 20° NNW 03:42:03 20° NNW 03:44:09 10° N
Cosmos 2219 Rocket 3.7 03:46:46 29° E 03:46:46 29° E 03:51:18 10° NE
SL-16 R/B 4.1 03:50:14 20° NNW 03:50:14 20° NNW 03:52:31 10° N
Cosmos 1844 Rocket 3.9 03:46:19 10° N 03:51:31 38° ENE 03:56:40 10° SE
ADEOS Rocket 3.6 03:49:13 10° NNE 03:52:59 46° NNE 03:52:59 46° NNE
COSMOS 2428 3.1 04:06:08 60° NE 04:06:08 60° NE 04:10:48 10° NNE
Cosmos 2360 Rocket 3.3 04:08:54 34° NNW 04:08:54 34° NNW 04:12:27 10° N
CENTAUR R/B 4.5 04:10:25 16° NW 04:11:30 17° NNW 04:15:48 10° N
Nadezhda 1 Rocket 3.9 04:12:10 76° E 04:12:12 76° E 04:18:15 10° N
ATLAS 5 CENTAUR R/B 3.8 04:07:34 10° NNW 04:13:06 37° NE 04:19:02 10° ESE
Cosmos 2278 Rocket 4.2 04:12:40 10° N 04:17:29 27° ENE 04:22:15 10° ESE
Cosmos 2237 Rocket 3.6 04:18:28 26° SE 04:20:27 33° ESE 04:25:30 10° NE
Cosmos 2074 Rocket 4.3 04:25:59 10° NNW 04:31:00 51° NW 04:31:00 51° NW
SL-16 R/B 4.1 04:37:44 20° NW 04:37:44 20° NW 04:39:48 10° NNW
MOS 1 Rocket 3.4 04:30:14 10° NNE 04:34:18 65° NE 04:34:18 65° NE
USA 229 DEB 3.6 04:34:11 59° SSW 04:35:38 86° ESE 04:42:36 10° NE
USA 229 3.6 04:34:16 59° SSW 04:35:44 86° ESE 04:42:42 10° NE
GPS 2-04 Rocket1 4.3 04:40:07 29° ESE 04:40:07 29° ESE 04:42:27 10° E
Aureole 2 Rocket 4.1 04:41:28 32° ENE 04:41:28 32° ENE 04:43:50 10° NE
Meteor 2-4 Rocket 4.4 04:38:58 21° SSE 04:42:24 50° E 04:47:38 10° NNE
Okean O Rocket 2.3 04:39:27 10° NNE 04:43:48 52° E 04:44:56 41° SSE
Cosmos 1743 4.2 04:40:49 10° N 04:42:54 31° N 04:42:54 31° N
DELTA 2 R/B (1) 3.5 04:46:09 66° WNW 04:46:57 83° N 04:52:32 10° E
Meteor 1-19 Rocket 4.2 04:45:56 43° S 04:47:55 82° E 04:53:42 10° N
NOSS 3-1 (C) 4.3 04:45:32 24° S 04:48:28 42° ESE 04:54:18 10° NE
Cosmos 2341 Rocket 4.2 04:43:28 10° N 04:49:43 72° E 04:55:53 10° SSE
Cosmos 2333 Rocket 2.1 04:50:14 50° SSW 04:51:49 86° ESE 04:57:36 10° NNE
Resurs 1-4 Rocket 3.7 04:48:48 10° NNW 04:51:24 20° NW 04:51:24 20° NW
MOS 1-B 4.4 04:52:41 10° N 04:58:26 61° WNW 04:59:49 48° WSW
PAYLOAD B 4.3 04:57:25 10° NNE 05:03:03 76° ESE 05:07:06 20° S
Cosmos 1437 4.1 05:03:20 30° SE 05:04:20 38° E 05:07:24 10° NNE
ERS-2 4.5 05:03:08 10° NE 05:06:08 23° E 05:09:07 10° SSE
PSLV R/B 3.8 05:04:14 10° NNE 05:08:36 70° E 05:11:11 24° S
CZ-2D R/B 3.9 05:05:42 10° NNW 05:08:24 17° NW 05:08:24 17° NW
ADEOS II 2.1 05:04:21 10° NNE 05:09:38 83° ESE 05:13:24 19° S
Cosmos 1295 Rocket 4.4 05:05:15 10° N 05:11:29 85° E 05:17:36 10° S
EO 1 Del DPAF 3.3 05:09:07 10° SSE 05:12:57 77° ENE 05:16:50 10° N
SL-8 R/B 3.8 05:10:17 25° NW 05:13:00 72° NNE 05:17:46 10° ESE
Cosmos 1844 3.7 05:07:32 10° NNW 05:13:10 59° WSW 05:18:43 10° S
Cosmos 468 Rocket 4.0 05:13:18 41° SW 05:14:57 63° WNW 05:20:11 10° NNE
Cosmos 2285 Rocket 4.0 05:14:35 27° SSW 05:18:15 70° WNW 05:24:41 10° NNE
SL-16 R/B 3.2 05:14:38 10° S 05:19:58 44° ESE 05:25:20 10° NE
BREEZE M DEB (TANK) 4.0 05:08:21 10° WNW 05:20:40 60° NNE 05:24:27 10° ESE
Cosmos 1867 3.4 05:15:53 10° NW 05:21:18 68° WSW 05:26:40 10° SSE
CZ-4B R/B 3.1 05:16:27 10° NNE 05:22:06 82° WNW 05:26:46 15° SSW
Hubble Space Telescope 2.5 05:21:52 18° S 05:22:09 19° S 05:25:03 10° SE
Cosmos 1898 Rocket 3.4 05:20:11 10° NNW 05:25:17 59° WSW 05:30:20 10° S
Cosmos 1980 3.8 05:25:37 28° SW 05:28:31 59° WNW 05:34:06 10° NNE
CZ-2C R/B 3.6 05:24:29 10° S 05:29:02 81° WSW 05:33:32 10° NNW
CZ-4B DEB 4.2 05:23:34 10° N 05:29:07 71° WNW 05:33:57 14° SSW
Cosmos 2219 Rocket 2.8 05:28:30 29° W 05:30:20 36° WNW 05:35:28 10° N
Cosmos 2150 Rocket 3.9 05:25:59 10° NNW 05:31:16 69° WSW 05:36:37 10° S
Cosmos 2366 rocket 4.4 05:25:29 10° N 05:31:51 70° E 05:38:10 10° SSE
Cosmos 1606 Rocket 3.7 05:28:22 10° N 05:32:52 79° E 05:37:20 10° S
OTV 4 0.6 05:33:06 48° S 05:33:17 49° SSE 05:35:58 10° E
Cosmos 1844 Rocket 3.4 05:30:33 10° NW 05:35:11 27° WSW 05:39:48 10° SSW
Cosmos 1763 Rocket 3.3 05:31:32 17° SSW 05:35:30 78° WNW 05:40:39 10° NNE
Okean 2 3.3 05:36:03 13° SSW 05:39:39 68° W 05:43:50 10° N
CZ-4C R/B 4.2 05:33:02 10° NNW 05:39:42 41° NE 05:47:00 10° ESE
Okean 1-7 Rocket 4.1 05:37:56 26° SW 05:39:48 39° WNW 05:44:00 10° N
Cosmos 2228 4.2 05:37:31 10° N 05:41:43 46° E 05:45:55 10° SSE
Cosmos 1346 3.9 05:40:15 10° S 05:42:58 47° E 05:45:43 10° NNE
Meteor 2-9 Rocket 4.3 05:39:28 10° NNW 05:44:54 52° W 05:50:09 10° SSW
Cosmos 1937 Rocket 3.6 05:42:54 10° NNW 05:48:03 51° WSW 05:53:08 10° S
COSMOS 2428 4.4 05:48:09 14° WNW 05:50:03 16° NW 05:53:29 10° NNW
Cosmos 1025 Rocket 3.6 05:48:25 18° SW 05:51:05 36° WNW 05:55:10 10° N
Cosmos 540 Rocket 4.3 05:46:58 10° S 05:51:53 50° ESE 05:56:49 10° NNE
Cosmos 841 Rocket 3.4 05:48:04 10° SSW 05:53:10 66° WNW 05:58:18 10° NNE
CZ-4B R/B 4.1 05:51:45 10° NNW 05:54:34 21° WNW 05:55:29 19° W
CZ-4B R/B 4.1 05:53:00 10° N 05:57:32 85° WNW 06:01:57 10° SSW
ATLAS 5 CENTAUR R/B 2.8 05:52:10 10° NW 05:57:55 42° WSW 06:04:02 10° S
Abrixas rocket 3.7 05:56:10 10° SSW 05:59:05 31° SE 06:02:01 10° ENE
SL-8 Rocket 4.1 05:53:37 10° NNW 05:59:35 51° W 06:05:29 10° SSW
Cosmos 1515 3.6 05:57:34 10° SSW 06:01:23 69° W 06:05:15 10° N
Cosmos 2278 Rocket 2.5 05:56:23 10° NW 06:01:40 41° WSW 06:06:55 10° S
Cosmos 1666 4.2 05:59:37 10° NW 06:02:16 18° W 06:03:19 16° WSW
Cosmos 1441 Rocket 3.3 06:00:16 10° SSW 06:04:11 63° W 06:08:10 10° N
Cosmos 2237 Rocket 3.0 06:00:20 15° WSW 06:04:27 33° WNW 06:09:35 10° N
ERBS 2.9 06:02:03 10° NW 06:05:31 62° NE 06:08:58 10° SE
Cosmos 1726 Rocket 3.7 06:01:50 10° NNW 06:06:10 52° W 06:10:29 10° S
USA 116 4.2 06:02:31 10° S 06:06:53 62° W 06:11:49 10° NNW
Cosmos 405 3.0 06:03:37 10° N 06:07:11 89° E 06:10:45 10° S
Cosmos 1809 Rocket 4.4 06:01:30 10° NNW 06:07:39 72° W 06:13:45 10° S
COSMO-SKYMED 1 3.6 06:03:50 10° SSE 06:08:02 51° ENE 06:12:14 10° N
USA 215 3.2 06:01:56 10° SE 06:08:29 78° SW 06:15:04 10° NW
Cosmos 405 Rocket 4.1 06:12:58 11° WSW 06:15:56 21° WNW 06:19:01 10° NNW
GPS 2-04 Rocket1 3.0 06:14:37 12° WSW 06:18:15 52° S 06:22:02 10° ESE
Cosmos 1892 Rocket 4.2 06:14:43 10° SW 06:18:43 35° WNW 06:22:46 10° N
Okean O Rocket 3.4 06:17:17 10° NNW 06:19:43 15° WNW 06:22:07 10° W
Cosmos 2297 3.7 06:16:10 10° NNW 06:21:51 64° WSW 06:27:28 10° S
NOAA 6 4.0 06:16:51 10° N 06:21:59 82° WNW 06:27:06 10° SSW
Cosmos 371 Rocket 4.2 06:25:12 10° SW 06:29:28 30° WNW 06:33:46 10° N
